Index of /20260417/WXO-DD/model_rdps/10km/12/017
Name Last modified Size Description
Parent Directory -
20260417T12Z_MSC_RDPS_AbsoluteVorticity_IsbL-0250_RLatLon0.09_PT017H.grib2 2026-04-17 14:43 613K
20260417T12Z_MSC_RDPS_AbsoluteVorticity_IsbL-0500_RLatLon0.09_PT017H.grib2 2026-04-17 14:43 553K
20260417T12Z_MSC_RDPS_AbsoluteVorticity_IsbL-0700_RLatLon0.09_PT017H.grib2 2026-04-17 14:43 610K
20260417T12Z_MSC_RDPS_AbsoluteVorticity_IsbL-0850_RLatLon0.09_PT017H.grib2 2026-04-17 14:43 774K
20260417T12Z_MSC_RDPS_AirTemp_AGL-120m_RLatLon0.09_PT017H.grib2 2026-04-17 14:43 372K
20260417T12Z_MSC_RDPS_AirTemp_AGL-2m_RLatLon0.09_PT017H.grib2 2026-04-17 14:43 624K
20260417T12Z_MSC_RDPS_AirTemp_AGL-40m_RLatLon0.09_PT017H.grib2 2026-04-17 14:43 388K
20260417T12Z_MSC_RDPS_AirTemp_AGL-80m_RLatLon0.09_PT017H.grib2 2026-04-17 14:43 379K
20260417T12Z_MSC_RDPS_AirTemp_IsbL-0001_RLatLon0.09_PT017H.grib2 2026-04-17 14:43 296K
20260417T12Z_MSC_RDPS_AirTemp_IsbL-0005_RLatLon0.09_PT017H.grib2 2026-04-17 14:43 333K
20260417T12Z_MSC_RDPS_AirTemp_IsbL-0010_RLatLon0.09_PT017H.grib2 2026-04-17 14:43 303K
20260417T12Z_MSC_RDPS_AirTemp_IsbL-0020_RLatLon0.09_PT017H.grib2 2026-04-17 14:43 360K
20260417T12Z_MSC_RDPS_AirTemp_IsbL-0030_RLatLon0.09_PT017H.grib2 2026-04-17 14:43 377K
20260417T12Z_MSC_RDPS_AirTemp_IsbL-0050_RLatLon0.09_PT017H.grib2 2026-04-17 14:43 324K
20260417T12Z_MSC_RDPS_AirTemp_IsbL-0100_RLatLon0.09_PT017H.grib2 2026-04-17 14:43 388K
20260417T12Z_MSC_RDPS_AirTemp_IsbL-0150_RLatLon0.09_PT017H.grib2 2026-04-17 14:43 412K
20260417T12Z_MSC_RDPS_AirTemp_IsbL-0175_RLatLon0.09_PT017H.grib2 2026-04-17 14:43 409K
20260417T12Z_MSC_RDPS_AirTemp_IsbL-0200_RLatLon0.09_PT017H.grib2 2026-04-17 14:43 412K
20260417T12Z_MSC_RDPS_AirTemp_IsbL-0225_RLatLon0.09_PT017H.grib2 2026-04-17 14:43 416K
20260417T12Z_MSC_RDPS_AirTemp_IsbL-0250_RLatLon0.09_PT017H.grib2 2026-04-17 14:43 424K
20260417T12Z_MSC_RDPS_AirTemp_IsbL-0275_RLatLon0.09_PT017H.grib2 2026-04-17 14:43 405K
20260417T12Z_MSC_RDPS_AirTemp_IsbL-0300_RLatLon0.09_PT017H.grib2 2026-04-17 14:43 410K
20260417T12Z_MSC_RDPS_AirTemp_IsbL-0350_RLatLon0.09_PT017H.grib2 2026-04-17 14:43 419K
20260417T12Z_MSC_RDPS_AirTemp_IsbL-0400_RLatLon0.09_PT017H.grib2 2026-04-17 14:43 385K
20260417T12Z_MSC_RDPS_AirTemp_IsbL-0450_RLatLon0.09_PT017H.grib2 2026-04-17 14:43 391K
20260417T12Z_MSC_RDPS_AirTemp_IsbL-0500_RLatLon0.09_PT017H.grib2 2026-04-17 14:43 403K
20260417T12Z_MSC_RDPS_AirTemp_IsbL-0550_RLatLon0.09_PT017H.grib2 2026-04-17 14:43 421K
20260417T12Z_MSC_RDPS_AirTemp_IsbL-0600_RLatLon0.09_PT017H.grib2 2026-04-17 14:43 440K
20260417T12Z_MSC_RDPS_AirTemp_IsbL-0650_RLatLon0.09_PT017H.grib2 2026-04-17 14:43 454K
20260417T12Z_MSC_RDPS_AirTemp_IsbL-0700_RLatLon0.09_PT017H.grib2 2026-04-17 14:43 479K
20260417T12Z_MSC_RDPS_AirTemp_IsbL-0750_RLatLon0.09_PT017H.grib2 2026-04-17 14:43 406K
20260417T12Z_MSC_RDPS_AirTemp_IsbL-0800_RLatLon0.09_PT017H.grib2 2026-04-17 14:43 451K
20260417T12Z_MSC_RDPS_AirTemp_IsbL-0850_RLatLon0.09_PT017H.grib2 2026-04-17 14:43 499K
20260417T12Z_MSC_RDPS_AirTemp_IsbL-0875_RLatLon0.09_PT017H.grib2 2026-04-17 14:43 514K
20260417T12Z_MSC_RDPS_AirTemp_IsbL-0900_RLatLon0.09_PT017H.grib2 2026-04-17 14:43 521K
20260417T12Z_MSC_RDPS_AirTemp_IsbL-0925_RLatLon0.09_PT017H.grib2 2026-04-17 14:43 519K
20260417T12Z_MSC_RDPS_AirTemp_IsbL-0950_RLatLon0.09_PT017H.grib2 2026-04-17 14:43 517K
20260417T12Z_MSC_RDPS_AirTemp_IsbL-0970_RLatLon0.09_PT017H.grib2 2026-04-17 14:43 510K
20260417T12Z_MSC_RDPS_AirTemp_IsbL-0985_RLatLon0.09_PT017H.grib2 2026-04-17 14:43 500K
20260417T12Z_MSC_RDPS_AirTemp_IsbL-1000_RLatLon0.09_PT017H.grib2 2026-04-17 14:43 483K
20260417T12Z_MSC_RDPS_AirTemp_IsbL-1015_RLatLon0.09_PT017H.grib2 2026-04-17 14:43 480K
20260417T12Z_MSC_RDPS_Albedo_Sfc_RLatLon0.09_PT017H.grib2 2026-04-17 14:43 165K
20260417T12Z_MSC_RDPS_CAPE_Sfc_RLatLon0.09_PT017H.grib2 2026-04-17 14:43 1.6M
20260417T12Z_MSC_RDPS_CIN_Sfc_RLatLon0.09_PT017H.grib2 2026-04-17 14:43 1.1M
20260417T12Z_MSC_RDPS_CloudWater_EAtm_RLatLon0.09_PT017H.grib2 2026-04-17 14:43 210K
20260417T12Z_MSC_RDPS_ConvectivePrecip-Accum_Sfc_RLatLon0.09_PT017H.grib2 2026-04-17 14:43 781K
20260417T12Z_MSC_RDPS_DewPointDepression_AGL-2m_RLatLon0.09_PT017H.grib2 2026-04-17 14:43 384K
20260417T12Z_MSC_RDPS_DewPointDepression_IsbL-0001_RLatLon0.09_PT017H.grib2 2026-04-17 14:43 193
20260417T12Z_MSC_RDPS_DewPointDepression_IsbL-0005_RLatLon0.09_PT017H.grib2 2026-04-17 14:43 193
20260417T12Z_MSC_RDPS_DewPointDepression_IsbL-0010_RLatLon0.09_PT017H.grib2 2026-04-17 14:43 193
20260417T12Z_MSC_RDPS_DewPointDepression_IsbL-0020_RLatLon0.09_PT017H.grib2 2026-04-17 14:43 193
20260417T12Z_MSC_RDPS_DewPointDepression_IsbL-0030_RLatLon0.09_PT017H.grib2 2026-04-17 14:43 6.2K
20260417T12Z_MSC_RDPS_DewPointDepression_IsbL-0050_RLatLon0.09_PT017H.grib2 2026-04-17 14:43 103K
20260417T12Z_MSC_RDPS_DewPointDepression_IsbL-0100_RLatLon0.09_PT017H.grib2 2026-04-17 14:43 124K
20260417T12Z_MSC_RDPS_DewPointDepression_IsbL-0150_RLatLon0.09_PT017H.grib2 2026-04-17 14:43 144K
20260417T12Z_MSC_RDPS_DewPointDepression_IsbL-0175_RLatLon0.09_PT017H.grib2 2026-04-17 14:43 176K
20260417T12Z_MSC_RDPS_DewPointDepression_IsbL-0200_RLatLon0.09_PT017H.grib2 2026-04-17 14:43 211K
20260417T12Z_MSC_RDPS_DewPointDepression_IsbL-0225_RLatLon0.09_PT017H.grib2 2026-04-17 14:43 248K
20260417T12Z_MSC_RDPS_DewPointDepression_IsbL-0250_RLatLon0.09_PT017H.grib2 2026-04-17 14:43 292K
20260417T12Z_MSC_RDPS_DewPointDepression_IsbL-0275_RLatLon0.09_PT017H.grib2 2026-04-17 14:43 299K
20260417T12Z_MSC_RDPS_DewPointDepression_IsbL-0300_RLatLon0.09_PT017H.grib2 2026-04-17 14:43 315K
20260417T12Z_MSC_RDPS_DewPointDepression_IsbL-0350_RLatLon0.09_PT017H.grib2 2026-04-17 14:43 318K
20260417T12Z_MSC_RDPS_DewPointDepression_IsbL-0400_RLatLon0.09_PT017H.grib2 2026-04-17 14:43 328K
20260417T12Z_MSC_RDPS_DewPointDepression_IsbL-0450_RLatLon0.09_PT017H.grib2 2026-04-17 14:43 336K
20260417T12Z_MSC_RDPS_DewPointDepression_IsbL-0500_RLatLon0.09_PT017H.grib2 2026-04-17 14:43 340K
20260417T12Z_MSC_RDPS_DewPointDepression_IsbL-0550_RLatLon0.09_PT017H.grib2 2026-04-17 14:43 352K
20260417T12Z_MSC_RDPS_DewPointDepression_IsbL-0600_RLatLon0.09_PT017H.grib2 2026-04-17 14:43 366K
20260417T12Z_MSC_RDPS_DewPointDepression_IsbL-0650_RLatLon0.09_PT017H.grib2 2026-04-17 14:43 376K
20260417T12Z_MSC_RDPS_DewPointDepression_IsbL-0700_RLatLon0.09_PT017H.grib2 2026-04-17 14:43 388K
20260417T12Z_MSC_RDPS_DewPointDepression_IsbL-0750_RLatLon0.09_PT017H.grib2 2026-04-17 14:43 409K
20260417T12Z_MSC_RDPS_DewPointDepression_IsbL-0800_RLatLon0.09_PT017H.grib2 2026-04-17 14:43 441K
20260417T12Z_MSC_RDPS_DewPointDepression_IsbL-0850_RLatLon0.09_PT017H.grib2 2026-04-17 14:43 466K
20260417T12Z_MSC_RDPS_DewPointDepression_IsbL-0875_RLatLon0.09_PT017H.grib2 2026-04-17 14:43 464K
20260417T12Z_MSC_RDPS_DewPointDepression_IsbL-0900_RLatLon0.09_PT017H.grib2 2026-04-17 14:43 456K
20260417T12Z_MSC_RDPS_DewPointDepression_IsbL-0925_RLatLon0.09_PT017H.grib2 2026-04-17 14:43 444K
20260417T12Z_MSC_RDPS_DewPointDepression_IsbL-0950_RLatLon0.09_PT017H.grib2 2026-04-17 14:43 433K
20260417T12Z_MSC_RDPS_DewPointDepression_IsbL-0970_RLatLon0.09_PT017H.grib2 2026-04-17 14:43 427K
20260417T12Z_MSC_RDPS_DewPointDepression_IsbL-0985_RLatLon0.09_PT017H.grib2 2026-04-17 14:43 423K
20260417T12Z_MSC_RDPS_DewPointDepression_IsbL-1000_RLatLon0.09_PT017H.grib2 2026-04-17 14:43 419K
20260417T12Z_MSC_RDPS_DewPointDepression_IsbL-1015_RLatLon0.09_PT017H.grib2 2026-04-17 14:43 409K
20260417T12Z_MSC_RDPS_DewPoint_AGL-2m_RLatLon0.09_PT017H.grib2 2026-04-17 14:43 303K
20260417T12Z_MSC_RDPS_DownwardLongwaveRadiationFlux-Accum_Sfc_RLatLon0.09_PT017H.grib2 2026-04-17 14:43 522K
20260417T12Z_MSC_RDPS_DownwardShortwaveRadiationFlux-Accum_NTAtm_RLatLon0.09_PT017H.grib2 2026-04-17 14:43 112K
20260417T12Z_MSC_RDPS_DownwardShortwaveRadiationFlux-Accum_Sfc_RLatLon0.09_PT017H.grib2 2026-04-17 14:43 599K
20260417T12Z_MSC_RDPS_FreezingRain-Accum1h_Sfc_RLatLon0.09_PT017H.grib2 2026-04-17 14:43 27K
20260417T12Z_MSC_RDPS_FreezingRain-Accum_Sfc_RLatLon0.09_PT017H.grib2 2026-04-17 14:43 81K
20260417T12Z_MSC_RDPS_GeopotentialHeight_IsbL-0001_RLatLon0.09_PT017H.grib2 2026-04-17 14:43 268K
20260417T12Z_MSC_RDPS_GeopotentialHeight_IsbL-0005_RLatLon0.09_PT017H.grib2 2026-04-17 14:43 234K
20260417T12Z_MSC_RDPS_GeopotentialHeight_IsbL-0010_RLatLon0.09_PT017H.grib2 2026-04-17 14:43 307K
20260417T12Z_MSC_RDPS_GeopotentialHeight_IsbL-0020_RLatLon0.09_PT017H.grib2 2026-04-17 14:43 335K
20260417T12Z_MSC_RDPS_GeopotentialHeight_IsbL-0030_RLatLon0.09_PT017H.grib2 2026-04-17 14:43 338K
20260417T12Z_MSC_RDPS_GeopotentialHeight_IsbL-0050_RLatLon0.09_PT017H.grib2 2026-04-17 14:43 310K
20260417T12Z_MSC_RDPS_GeopotentialHeight_IsbL-0100_RLatLon0.09_PT017H.grib2 2026-04-17 14:43 288K
20260417T12Z_MSC_RDPS_GeopotentialHeight_IsbL-0150_RLatLon0.09_PT017H.grib2 2026-04-17 14:43 261K
20260417T12Z_MSC_RDPS_GeopotentialHeight_IsbL-0175_RLatLon0.09_PT017H.grib2 2026-04-17 14:43 263K
20260417T12Z_MSC_RDPS_GeopotentialHeight_IsbL-0200_RLatLon0.09_PT017H.grib2 2026-04-17 14:43 264K
20260417T12Z_MSC_RDPS_GeopotentialHeight_IsbL-0225_RLatLon0.09_PT017H.grib2 2026-04-17 14:43 265K
20260417T12Z_MSC_RDPS_GeopotentialHeight_IsbL-0250_RLatLon0.09_PT017H.grib2 2026-04-17 14:43 266K
20260417T12Z_MSC_RDPS_GeopotentialHeight_IsbL-0275_RLatLon0.09_PT017H.grib2 2026-04-17 14:43 265K
20260417T12Z_MSC_RDPS_GeopotentialHeight_IsbL-0300_RLatLon0.09_PT017H.grib2 2026-04-17 14:43 265K
20260417T12Z_MSC_RDPS_GeopotentialHeight_IsbL-0350_RLatLon0.09_PT017H.grib2 2026-04-17 14:43 229K
20260417T12Z_MSC_RDPS_GeopotentialHeight_IsbL-0400_RLatLon0.09_PT017H.grib2 2026-04-17 14:43 226K
20260417T12Z_MSC_RDPS_GeopotentialHeight_IsbL-0450_RLatLon0.09_PT017H.grib2 2026-04-17 14:43 222K
20260417T12Z_MSC_RDPS_GeopotentialHeight_IsbL-0500_RLatLon0.09_PT017H.grib2 2026-04-17 14:43 288K
20260417T12Z_MSC_RDPS_GeopotentialHeight_IsbL-0550_RLatLon0.09_PT017H.grib2 2026-04-17 14:43 284K
20260417T12Z_MSC_RDPS_GeopotentialHeight_IsbL-0600_RLatLon0.09_PT017H.grib2 2026-04-17 14:43 281K
20260417T12Z_MSC_RDPS_GeopotentialHeight_IsbL-0650_RLatLon0.09_PT017H.grib2 2026-04-17 14:43 278K
20260417T12Z_MSC_RDPS_GeopotentialHeight_IsbL-0700_RLatLon0.09_PT017H.grib2 2026-04-17 14:43 249K
20260417T12Z_MSC_RDPS_GeopotentialHeight_IsbL-0750_RLatLon0.09_PT017H.grib2 2026-04-17 14:43 251K
20260417T12Z_MSC_RDPS_GeopotentialHeight_IsbL-0800_RLatLon0.09_PT017H.grib2 2026-04-17 14:43 258K
20260417T12Z_MSC_RDPS_GeopotentialHeight_IsbL-0850_RLatLon0.09_PT017H.grib2 2026-04-17 14:43 264K
20260417T12Z_MSC_RDPS_GeopotentialHeight_IsbL-0875_RLatLon0.09_PT017H.grib2 2026-04-17 14:43 268K
20260417T12Z_MSC_RDPS_GeopotentialHeight_IsbL-0900_RLatLon0.09_PT017H.grib2 2026-04-17 14:43 272K
20260417T12Z_MSC_RDPS_GeopotentialHeight_IsbL-0925_RLatLon0.09_PT017H.grib2 2026-04-17 14:43 275K
20260417T12Z_MSC_RDPS_GeopotentialHeight_IsbL-0950_RLatLon0.09_PT017H.grib2 2026-04-17 14:43 278K
20260417T12Z_MSC_RDPS_GeopotentialHeight_IsbL-0970_RLatLon0.09_PT017H.grib2 2026-04-17 14:43 282K
20260417T12Z_MSC_RDPS_GeopotentialHeight_IsbL-0985_RLatLon0.09_PT017H.grib2 2026-04-17 14:43 288K
20260417T12Z_MSC_RDPS_GeopotentialHeight_IsbL-1000_RLatLon0.09_PT017H.grib2 2026-04-17 14:43 296K
20260417T12Z_MSC_RDPS_GeopotentialHeight_IsbL-1015_RLatLon0.09_PT017H.grib2 2026-04-17 14:43 307K
20260417T12Z_MSC_RDPS_Humidex_Sfc_RLatLon0.09_PT017H.grib2 2026-04-17 14:43 2.4M
20260417T12Z_MSC_RDPS_IcePellets-Accum1h_Sfc_RLatLon0.09_PT017H.grib2 2026-04-17 14:43 8.4K
20260417T12Z_MSC_RDPS_IcePellets-Accum_Sfc_RLatLon0.09_PT017H.grib2 2026-04-17 14:43 26K
20260417T12Z_MSC_RDPS_KIndex_Sfc_RLatLon0.09_PT017H.grib2 2026-04-17 14:43 2.4M
20260417T12Z_MSC_RDPS_LatentHeatNetFlux_Sfc_RLatLon0.09_PT017H.grib2 2026-04-17 14:43 297K
20260417T12Z_MSC_RDPS_LiftedIndex-MU-VT_IsbL-0500_RLatLon0.09_PT017H.grib2 2026-04-17 14:43 2.4M
20260417T12Z_MSC_RDPS_NetLongwaveRadiationFlux-Accum_Sfc_RLatLon0.09_PT017H.grib2 2026-04-17 14:43 529K
20260417T12Z_MSC_RDPS_NetShortwaveRadiationFlux-Accum_Sfc_RLatLon0.09_PT017H.grib2 2026-04-17 14:43 603K
20260417T12Z_MSC_RDPS_PlanetaryBoundaryLayerHeight_Sfc_RLatLon0.09_PT017H.grib2 2026-04-17 14:43 1.1M
20260417T12Z_MSC_RDPS_Precip-Accum1h_Sfc_RLatLon0.09_PT017H.grib2 2026-04-17 14:43 1.2M
20260417T12Z_MSC_RDPS_Precip-Accum_Sfc_RLatLon0.09_PT017H.grib2 2026-04-17 14:43 1.9M
20260417T12Z_MSC_RDPS_PrecipRate_Sfc_RLatLon0.09_PT017H.grib2 2026-04-17 14:43 165K
20260417T12Z_MSC_RDPS_PrecipType-Instant_Sfc_RLatLon0.09_PT017H.grib2 2026-04-17 14:43 535K
20260417T12Z_MSC_RDPS_Pressure-Trend3h_Sfc_RLatLon0.09_PT017H.grib2 2026-04-17 14:43 1.2M
20260417T12Z_MSC_RDPS_Pressure_MSL_RLatLon0.09_PT017H.grib2 2026-04-17 14:43 323K
20260417T12Z_MSC_RDPS_Pressure_PVU-1.5_RLatLon0.09_PT017H.grib2 2026-04-17 14:43 2.3M
20260417T12Z_MSC_RDPS_Pressure_PVU-1_RLatLon0.09_PT017H.grib2 2026-04-17 14:43 2.4M
20260417T12Z_MSC_RDPS_Pressure_PVU-2_RLatLon0.09_PT017H.grib2 2026-04-17 14:43 2.4M
20260417T12Z_MSC_RDPS_Pressure_Sfc_RLatLon0.09_PT017H.grib2 2026-04-17 14:43 499K
20260417T12Z_MSC_RDPS_RadiativeTemp_Sfc_RLatLon0.09_PT017H.grib2 2026-04-17 14:43 300K
20260417T12Z_MSC_RDPS_Rain-Accum1h_Sfc_RLatLon0.09_PT017H.grib2 2026-04-17 14:43 546K
20260417T12Z_MSC_RDPS_Rain-Accum_Sfc_RLatLon0.09_PT017H.grib2 2026-04-17 14:43 1.3M
20260417T12Z_MSC_RDPS_RelativeHumidity_AGL-2m_RLatLon0.09_PT017H.grib2 2026-04-17 14:43 1.0M
20260417T12Z_MSC_RDPS_RelativeHumidity_IsbL-0010_RLatLon0.09_PT017H.grib2 2026-04-17 14:43 567K
20260417T12Z_MSC_RDPS_RelativeHumidity_IsbL-0020_RLatLon0.09_PT017H.grib2 2026-04-17 14:43 404K
20260417T12Z_MSC_RDPS_RelativeHumidity_IsbL-0030_RLatLon0.09_PT017H.grib2 2026-04-17 14:43 356K
20260417T12Z_MSC_RDPS_RelativeHumidity_IsbL-0050_RLatLon0.09_PT017H.grib2 2026-04-17 14:43 385K
20260417T12Z_MSC_RDPS_RelativeHumidity_IsbL-0100_RLatLon0.09_PT017H.grib2 2026-04-17 14:43 368K
20260417T12Z_MSC_RDPS_RelativeHumidity_IsbL-0150_RLatLon0.09_PT017H.grib2 2026-04-17 14:43 383K
20260417T12Z_MSC_RDPS_RelativeHumidity_IsbL-0175_RLatLon0.09_PT017H.grib2 2026-04-17 14:43 466K
20260417T12Z_MSC_RDPS_RelativeHumidity_IsbL-0200_RLatLon0.09_PT017H.grib2 2026-04-17 14:43 545K
20260417T12Z_MSC_RDPS_RelativeHumidity_IsbL-0225_RLatLon0.09_PT017H.grib2 2026-04-17 14:43 616K
20260417T12Z_MSC_RDPS_RelativeHumidity_IsbL-0250_RLatLon0.09_PT017H.grib2 2026-04-17 14:43 685K
20260417T12Z_MSC_RDPS_RelativeHumidity_IsbL-0275_RLatLon0.09_PT017H.grib2 2026-04-17 14:43 704K
20260417T12Z_MSC_RDPS_RelativeHumidity_IsbL-0300_RLatLon0.09_PT017H.grib2 2026-04-17 14:43 742K
20260417T12Z_MSC_RDPS_RelativeHumidity_IsbL-0350_RLatLon0.09_PT017H.grib2 2026-04-17 14:43 749K
20260417T12Z_MSC_RDPS_RelativeHumidity_IsbL-0400_RLatLon0.09_PT017H.grib2 2026-04-17 14:43 764K
20260417T12Z_MSC_RDPS_RelativeHumidity_IsbL-0450_RLatLon0.09_PT017H.grib2 2026-04-17 14:43 775K
20260417T12Z_MSC_RDPS_RelativeHumidity_IsbL-0500_RLatLon0.09_PT017H.grib2 2026-04-17 14:43 797K
20260417T12Z_MSC_RDPS_RelativeHumidity_IsbL-0550_RLatLon0.09_PT017H.grib2 2026-04-17 14:43 824K
20260417T12Z_MSC_RDPS_RelativeHumidity_IsbL-0600_RLatLon0.09_PT017H.grib2 2026-04-17 14:43 845K
20260417T12Z_MSC_RDPS_RelativeHumidity_IsbL-0650_RLatLon0.09_PT017H.grib2 2026-04-17 14:43 854K
20260417T12Z_MSC_RDPS_RelativeHumidity_IsbL-0700_RLatLon0.09_PT017H.grib2 2026-04-17 14:43 875K
20260417T12Z_MSC_RDPS_RelativeHumidity_IsbL-0750_RLatLon0.09_PT017H.grib2 2026-04-17 14:43 918K
20260417T12Z_MSC_RDPS_RelativeHumidity_IsbL-0800_RLatLon0.09_PT017H.grib2 2026-04-17 14:43 1.0M
20260417T12Z_MSC_RDPS_RelativeHumidity_IsbL-0850_RLatLon0.09_PT017H.grib2 2026-04-17 14:43 1.0M
20260417T12Z_MSC_RDPS_RelativeHumidity_IsbL-0875_RLatLon0.09_PT017H.grib2 2026-04-17 14:43 1.0M
20260417T12Z_MSC_RDPS_RelativeHumidity_IsbL-0900_RLatLon0.09_PT017H.grib2 2026-04-17 14:43 1.1M
20260417T12Z_MSC_RDPS_RelativeHumidity_IsbL-0925_RLatLon0.09_PT017H.grib2 2026-04-17 14:43 1.1M
20260417T12Z_MSC_RDPS_RelativeHumidity_IsbL-0950_RLatLon0.09_PT017H.grib2 2026-04-17 14:43 1.1M
20260417T12Z_MSC_RDPS_RelativeHumidity_IsbL-0970_RLatLon0.09_PT017H.grib2 2026-04-17 14:43 1.0M
20260417T12Z_MSC_RDPS_RelativeHumidity_IsbL-0985_RLatLon0.09_PT017H.grib2 2026-04-17 14:43 1.0M
20260417T12Z_MSC_RDPS_RelativeHumidity_IsbL-1000_RLatLon0.09_PT017H.grib2 2026-04-17 14:43 1.0M
20260417T12Z_MSC_RDPS_RelativeHumidity_IsbL-1015_RLatLon0.09_PT017H.grib2 2026-04-17 14:43 1.0M
20260417T12Z_MSC_RDPS_Runoff-Accum_Sfc_RLatLon0.09_PT017H.grib2 2026-04-17 14:43 43K
20260417T12Z_MSC_RDPS_SWEATIndex_Sfc_RLatLon0.09_PT017H.grib2 2026-04-17 14:43 2.4M
20260417T12Z_MSC_RDPS_SeeingIndex_EAtm_RLatLon0.09_PT017H.grib2 2026-04-17 14:43 1.0M
20260417T12Z_MSC_RDPS_SensibleHeatNetFlux_Sfc_RLatLon0.09_PT017H.grib2 2026-04-17 14:43 290K
20260417T12Z_MSC_RDPS_ShowalterIndex_IsbL-0500_RLatLon0.09_PT017H.grib2 2026-04-17 14:43 2.6M
20260417T12Z_MSC_RDPS_SkyTransparencyIndex_EAtm_RLatLon0.09_PT017H.grib2 2026-04-17 14:43 694K
20260417T12Z_MSC_RDPS_Snow-Accum1h_Sfc_RLatLon0.09_PT017H.grib2 2026-04-17 14:43 478K
20260417T12Z_MSC_RDPS_Snow-Accum_Sfc_RLatLon0.09_PT017H.grib2 2026-04-17 14:43 729K
20260417T12Z_MSC_RDPS_SnowDensity_Sfc_RLatLon0.09_PT017H.grib2 2026-04-17 14:43 179K
20260417T12Z_MSC_RDPS_SnowDepth_Sfc_RLatLon0.09_PT017H.grib2 2026-04-17 14:43 731K
20260417T12Z_MSC_RDPS_SoilTemp_DBS-0to10cm_RLatLon0.09_PT017H.grib2 2026-04-17 14:43 217K
20260417T12Z_MSC_RDPS_SoilTemp_Sfc_RLatLon0.09_PT017H.grib2 2026-04-17 14:43 265K
20260417T12Z_MSC_RDPS_SoilVolumetricIceContent_Sfc_RLatLon0.09_PT017H.grib2 2026-04-17 14:43 176K
20260417T12Z_MSC_RDPS_SoilVolumetricWaterContent_DBS-0to10cm_RLatLon0.09_PT017H.grib2 2026-04-17 14:43 246K
20260417T12Z_MSC_RDPS_SoilVolumetricWaterContent_DBS-0to1cm_RLatLon0.09_PT017H.grib2 2026-04-17 14:43 332K
20260417T12Z_MSC_RDPS_SpecificHumidity_AGL-120m_RLatLon0.09_PT017H.grib2 2026-04-17 14:43 468K
20260417T12Z_MSC_RDPS_SpecificHumidity_AGL-2m_RLatLon0.09_PT017H.grib2 2026-04-17 14:43 761K
20260417T12Z_MSC_RDPS_SpecificHumidity_AGL-40m_RLatLon0.09_PT017H.grib2 2026-04-17 14:43 471K
20260417T12Z_MSC_RDPS_SpecificHumidity_AGL-80m_RLatLon0.09_PT017H.grib2 2026-04-17 14:43 468K
20260417T12Z_MSC_RDPS_SpecificHumidity_IsbL-0001_RLatLon0.09_PT017H.grib2 2026-04-17 14:43 297K
20260417T12Z_MSC_RDPS_SpecificHumidity_IsbL-0005_RLatLon0.09_PT017H.grib2 2026-04-17 14:43 346K
20260417T12Z_MSC_RDPS_SpecificHumidity_IsbL-0010_RLatLon0.09_PT017H.grib2 2026-04-17 14:43 383K
20260417T12Z_MSC_RDPS_SpecificHumidity_IsbL-0020_RLatLon0.09_PT017H.grib2 2026-04-17 14:43 384K
20260417T12Z_MSC_RDPS_SpecificHumidity_IsbL-0030_RLatLon0.09_PT017H.grib2 2026-04-17 14:43 468K
20260417T12Z_MSC_RDPS_SpecificHumidity_IsbL-0050_RLatLon0.09_PT017H.grib2 2026-04-17 14:43 466K
20260417T12Z_MSC_RDPS_SpecificHumidity_IsbL-0100_RLatLon0.09_PT017H.grib2 2026-04-17 14:43 494K
20260417T12Z_MSC_RDPS_SpecificHumidity_IsbL-0150_RLatLon0.09_PT017H.grib2 2026-04-17 14:43 441K
20260417T12Z_MSC_RDPS_SpecificHumidity_IsbL-0175_RLatLon0.09_PT017H.grib2 2026-04-17 14:43 532K
20260417T12Z_MSC_RDPS_SpecificHumidity_IsbL-0200_RLatLon0.09_PT017H.grib2 2026-04-17 14:43 549K
20260417T12Z_MSC_RDPS_SpecificHumidity_IsbL-0225_RLatLon0.09_PT017H.grib2 2026-04-17 14:43 553K
20260417T12Z_MSC_RDPS_SpecificHumidity_IsbL-0250_RLatLon0.09_PT017H.grib2 2026-04-17 14:43 552K
20260417T12Z_MSC_RDPS_SpecificHumidity_IsbL-0275_RLatLon0.09_PT017H.grib2 2026-04-17 14:43 462K
20260417T12Z_MSC_RDPS_SpecificHumidity_IsbL-0300_RLatLon0.09_PT017H.grib2 2026-04-17 14:43 529K
20260417T12Z_MSC_RDPS_SpecificHumidity_IsbL-0350_RLatLon0.09_PT017H.grib2 2026-04-17 14:43 540K
20260417T12Z_MSC_RDPS_SpecificHumidity_IsbL-0400_RLatLon0.09_PT017H.grib2 2026-04-17 14:43 495K
20260417T12Z_MSC_RDPS_SpecificHumidity_IsbL-0450_RLatLon0.09_PT017H.grib2 2026-04-17 14:43 551K
20260417T12Z_MSC_RDPS_SpecificHumidity_IsbL-0500_RLatLon0.09_PT017H.grib2 2026-04-17 14:43 490K
20260417T12Z_MSC_RDPS_SpecificHumidity_IsbL-0550_RLatLon0.09_PT017H.grib2 2026-04-17 14:43 551K
20260417T12Z_MSC_RDPS_SpecificHumidity_IsbL-0600_RLatLon0.09_PT017H.grib2 2026-04-17 14:43 621K
20260417T12Z_MSC_RDPS_SpecificHumidity_IsbL-0650_RLatLon0.09_PT017H.grib2 2026-04-17 14:43 537K
20260417T12Z_MSC_RDPS_SpecificHumidity_IsbL-0700_RLatLon0.09_PT017H.grib2 2026-04-17 14:43 576K
20260417T12Z_MSC_RDPS_SpecificHumidity_IsbL-0750_RLatLon0.09_PT017H.grib2 2026-04-17 14:43 629K
20260417T12Z_MSC_RDPS_SpecificHumidity_IsbL-0800_RLatLon0.09_PT017H.grib2 2026-04-17 14:43 704K
20260417T12Z_MSC_RDPS_SpecificHumidity_IsbL-0850_RLatLon0.09_PT017H.grib2 2026-04-17 14:43 785K
20260417T12Z_MSC_RDPS_SpecificHumidity_IsbL-0875_RLatLon0.09_PT017H.grib2 2026-04-17 14:43 805K
20260417T12Z_MSC_RDPS_SpecificHumidity_IsbL-0900_RLatLon0.09_PT017H.grib2 2026-04-17 14:43 817K
20260417T12Z_MSC_RDPS_SpecificHumidity_IsbL-0925_RLatLon0.09_PT017H.grib2 2026-04-17 14:43 819K
20260417T12Z_MSC_RDPS_SpecificHumidity_IsbL-0950_RLatLon0.09_PT017H.grib2 2026-04-17 14:43 816K
20260417T12Z_MSC_RDPS_SpecificHumidity_IsbL-0970_RLatLon0.09_PT017H.grib2 2026-04-17 14:43 805K
20260417T12Z_MSC_RDPS_SpecificHumidity_IsbL-0985_RLatLon0.09_PT017H.grib2 2026-04-17 14:43 797K
20260417T12Z_MSC_RDPS_SpecificHumidity_IsbL-1000_RLatLon0.09_PT017H.grib2 2026-04-17 14:43 786K
20260417T12Z_MSC_RDPS_SpecificHumidity_IsbL-1015_RLatLon0.09_PT017H.grib2 2026-04-17 14:43 775K
20260417T12Z_MSC_RDPS_SpecificHumidity_Sfc_RLatLon0.09_PT017H.grib2 2026-04-17 14:43 280K
20260417T12Z_MSC_RDPS_StormRelativeHelicity_EtaL-10000_RLatLon0.09_PT017H.grib2 2026-04-17 14:43 1.2M
20260417T12Z_MSC_RDPS_StormSeverityIndex_EtaL-10000_RLatLon0.09_PT017H.grib2 2026-04-17 14:43 1.2M
20260417T12Z_MSC_RDPS_Thickness_IsbL-0850to0700_RLatLon0.09_PT017H.grib2 2026-04-17 14:43 174K
20260417T12Z_MSC_RDPS_Thickness_IsbL-1000to0500_RLatLon0.09_PT017H.grib2 2026-04-17 14:43 195K
20260417T12Z_MSC_RDPS_Thickness_IsbL-1000to0850_RLatLon0.09_PT017H.grib2 2026-04-17 14:43 183K
20260417T12Z_MSC_RDPS_TotalCloudCover_Sfc_RLatLon0.09_PT017H.grib2 2026-04-17 14:43 654K
20260417T12Z_MSC_RDPS_TotalTotalsIndex_Sfc_RLatLon0.09_PT017H.grib2 2026-04-17 14:43 2.4M
20260417T12Z_MSC_RDPS_UVIndex-ClearSky_Sfc_RLatLon0.09_PT017H.grib2 2026-04-17 14:43 86K
20260417T12Z_MSC_RDPS_UVIndex_Sfc_RLatLon0.09_PT017H.grib2 2026-04-17 14:43 141K
20260417T12Z_MSC_RDPS_UpwardLongwaveRadiationFlux_NTAtm_RLatLon0.09_PT017H.grib2 2026-04-17 14:43 476K
20260417T12Z_MSC_RDPS_UpwardShortwaveRadiationFlux_NTAtm_RLatLon0.09_PT017H.grib2 2026-04-17 14:43 120K
20260417T12Z_MSC_RDPS_VerticalVelocity_IsbL-0250_RLatLon0.09_PT017H.grib2 2026-04-17 14:43 550K
20260417T12Z_MSC_RDPS_VerticalVelocity_IsbL-0500_RLatLon0.09_PT017H.grib2 2026-04-17 14:43 673K
20260417T12Z_MSC_RDPS_VerticalVelocity_IsbL-0700_RLatLon0.09_PT017H.grib2 2026-04-17 14:43 582K
20260417T12Z_MSC_RDPS_VerticalVelocity_IsbL-0850_RLatLon0.09_PT017H.grib2 2026-04-17 14:43 684K
20260417T12Z_MSC_RDPS_VerticalWindShear_EtaL-6500_RLatLon0.09_PT017H.grib2 2026-04-17 14:43 1.2M
20260417T12Z_MSC_RDPS_WindChill_Sfc_RLatLon0.09_PT017H.grib2 2026-04-17 14:43 1.2M
20260417T12Z_MSC_RDPS_WindDir_AGL-10m_RLatLon0.09_PT017H.grib2 2026-04-17 14:43 957K
20260417T12Z_MSC_RDPS_WindDir_AGL-120m_RLatLon0.09_PT017H.grib2 2026-04-17 14:43 585K
20260417T12Z_MSC_RDPS_WindDir_AGL-40m_RLatLon0.09_PT017H.grib2 2026-04-17 14:43 622K
20260417T12Z_MSC_RDPS_WindDir_AGL-80m_RLatLon0.09_PT017H.grib2 2026-04-17 14:43 600K
20260417T12Z_MSC_RDPS_WindDir_IsbL-0001_RLatLon0.09_PT017H.grib2 2026-04-17 14:43 257K
20260417T12Z_MSC_RDPS_WindDir_IsbL-0005_RLatLon0.09_PT017H.grib2 2026-04-17 14:43 356K
20260417T12Z_MSC_RDPS_WindDir_IsbL-0010_RLatLon0.09_PT017H.grib2 2026-04-17 14:43 357K
20260417T12Z_MSC_RDPS_WindDir_IsbL-0020_RLatLon0.09_PT017H.grib2 2026-04-17 14:43 378K
20260417T12Z_MSC_RDPS_WindDir_IsbL-0030_RLatLon0.09_PT017H.grib2 2026-04-17 14:43 375K
20260417T12Z_MSC_RDPS_WindDir_IsbL-0050_RLatLon0.09_PT017H.grib2 2026-04-17 14:43 399K
20260417T12Z_MSC_RDPS_WindDir_IsbL-0100_RLatLon0.09_PT017H.grib2 2026-04-17 14:43 391K
20260417T12Z_MSC_RDPS_WindDir_IsbL-0150_RLatLon0.09_PT017H.grib2 2026-04-17 14:43 378K
20260417T12Z_MSC_RDPS_WindDir_IsbL-0175_RLatLon0.09_PT017H.grib2 2026-04-17 14:43 403K
20260417T12Z_MSC_RDPS_WindDir_IsbL-0200_RLatLon0.09_PT017H.grib2 2026-04-17 14:43 418K
20260417T12Z_MSC_RDPS_WindDir_IsbL-0225_RLatLon0.09_PT017H.grib2 2026-04-17 14:43 424K
20260417T12Z_MSC_RDPS_WindDir_IsbL-0250_RLatLon0.09_PT017H.grib2 2026-04-17 14:43 427K
20260417T12Z_MSC_RDPS_WindDir_IsbL-0275_RLatLon0.09_PT017H.grib2 2026-04-17 14:43 443K
20260417T12Z_MSC_RDPS_WindDir_IsbL-0300_RLatLon0.09_PT017H.grib2 2026-04-17 14:43 442K
20260417T12Z_MSC_RDPS_WindDir_IsbL-0350_RLatLon0.09_PT017H.grib2 2026-04-17 14:43 467K
20260417T12Z_MSC_RDPS_WindDir_IsbL-0400_RLatLon0.09_PT017H.grib2 2026-04-17 14:43 488K
20260417T12Z_MSC_RDPS_WindDir_IsbL-0450_RLatLon0.09_PT017H.grib2 2026-04-17 14:43 510K
20260417T12Z_MSC_RDPS_WindDir_IsbL-0500_RLatLon0.09_PT017H.grib2 2026-04-17 14:43 539K
20260417T12Z_MSC_RDPS_WindDir_IsbL-0550_RLatLon0.09_PT017H.grib2 2026-04-17 14:43 567K
20260417T12Z_MSC_RDPS_WindDir_IsbL-0600_RLatLon0.09_PT017H.grib2 2026-04-17 14:43 594K
20260417T12Z_MSC_RDPS_WindDir_IsbL-0650_RLatLon0.09_PT017H.grib2 2026-04-17 14:43 637K
20260417T12Z_MSC_RDPS_WindDir_IsbL-0700_RLatLon0.09_PT017H.grib2 2026-04-17 14:43 689K
20260417T12Z_MSC_RDPS_WindDir_IsbL-0750_RLatLon0.09_PT017H.grib2 2026-04-17 14:43 730K
20260417T12Z_MSC_RDPS_WindDir_IsbL-0800_RLatLon0.09_PT017H.grib2 2026-04-17 14:43 786K
20260417T12Z_MSC_RDPS_WindDir_IsbL-0850_RLatLon0.09_PT017H.grib2 2026-04-17 14:43 849K
20260417T12Z_MSC_RDPS_WindDir_IsbL-0875_RLatLon0.09_PT017H.grib2 2026-04-17 14:43 876K
20260417T12Z_MSC_RDPS_WindDir_IsbL-0900_RLatLon0.09_PT017H.grib2 2026-04-17 14:43 892K
20260417T12Z_MSC_RDPS_WindDir_IsbL-0925_RLatLon0.09_PT017H.grib2 2026-04-17 14:43 898K
20260417T12Z_MSC_RDPS_WindDir_IsbL-0950_RLatLon0.09_PT017H.grib2 2026-04-17 14:43 895K
20260417T12Z_MSC_RDPS_WindDir_IsbL-0970_RLatLon0.09_PT017H.grib2 2026-04-17 14:43 902K
20260417T12Z_MSC_RDPS_WindDir_IsbL-0985_RLatLon0.09_PT017H.grib2 2026-04-17 14:43 910K
20260417T12Z_MSC_RDPS_WindDir_IsbL-1000_RLatLon0.09_PT017H.grib2 2026-04-17 14:43 928K
20260417T12Z_MSC_RDPS_WindDir_IsbL-1015_RLatLon0.09_PT017H.grib2 2026-04-17 14:43 949K
20260417T12Z_MSC_RDPS_WindGust-Max_AGL-10m_RLatLon0.09_PT017H.grib2 2026-04-17 14:43 961K
20260417T12Z_MSC_RDPS_WindGust-Min_AGL-10m_RLatLon0.09_PT017H.grib2 2026-04-17 14:43 1.0M
20260417T12Z_MSC_RDPS_WindGust_AGL-10m_RLatLon0.09_PT017H.grib2 2026-04-17 14:43 1.0M
20260417T12Z_MSC_RDPS_WindSpeed_AGL-10m_RLatLon0.09_PT017H.grib2 2026-04-17 14:43 844K
20260417T12Z_MSC_RDPS_WindSpeed_AGL-120m_RLatLon0.09_PT017H.grib2 2026-04-17 14:43 540K
20260417T12Z_MSC_RDPS_WindSpeed_AGL-40m_RLatLon0.09_PT017H.grib2 2026-04-17 14:43 545K
20260417T12Z_MSC_RDPS_WindSpeed_AGL-80m_RLatLon0.09_PT017H.grib2 2026-04-17 14:43 542K
20260417T12Z_MSC_RDPS_WindSpeed_IsbL-0001_RLatLon0.09_PT017H.grib2 2026-04-17 14:43 296K
20260417T12Z_MSC_RDPS_WindSpeed_IsbL-0005_RLatLon0.09_PT017H.grib2 2026-04-17 14:43 340K
20260417T12Z_MSC_RDPS_WindSpeed_IsbL-0010_RLatLon0.09_PT017H.grib2 2026-04-17 14:43 349K
20260417T12Z_MSC_RDPS_WindSpeed_IsbL-0020_RLatLon0.09_PT017H.grib2 2026-04-17 14:43 368K
20260417T12Z_MSC_RDPS_WindSpeed_IsbL-0030_RLatLon0.09_PT017H.grib2 2026-04-17 14:43 331K
20260417T12Z_MSC_RDPS_WindSpeed_IsbL-0050_RLatLon0.09_PT017H.grib2 2026-04-17 14:43 369K
20260417T12Z_MSC_RDPS_WindSpeed_IsbL-0100_RLatLon0.09_PT017H.grib2 2026-04-17 14:43 484K
20260417T12Z_MSC_RDPS_WindSpeed_IsbL-0150_RLatLon0.09_PT017H.grib2 2026-04-17 14:43 371K
20260417T12Z_MSC_RDPS_WindSpeed_IsbL-0175_RLatLon0.09_PT017H.grib2 2026-04-17 14:43 419K
20260417T12Z_MSC_RDPS_WindSpeed_IsbL-0200_RLatLon0.09_PT017H.grib2 2026-04-17 14:43 436K
20260417T12Z_MSC_RDPS_WindSpeed_IsbL-0225_RLatLon0.09_PT017H.grib2 2026-04-17 14:43 445K
20260417T12Z_MSC_RDPS_WindSpeed_IsbL-0250_RLatLon0.09_PT017H.grib2 2026-04-17 14:43 451K
20260417T12Z_MSC_RDPS_WindSpeed_IsbL-0275_RLatLon0.09_PT017H.grib2 2026-04-17 14:43 466K
20260417T12Z_MSC_RDPS_WindSpeed_IsbL-0300_RLatLon0.09_PT017H.grib2 2026-04-17 14:43 461K
20260417T12Z_MSC_RDPS_WindSpeed_IsbL-0350_RLatLon0.09_PT017H.grib2 2026-04-17 14:43 469K
20260417T12Z_MSC_RDPS_WindSpeed_IsbL-0400_RLatLon0.09_PT017H.grib2 2026-04-17 14:43 471K
20260417T12Z_MSC_RDPS_WindSpeed_IsbL-0450_RLatLon0.09_PT017H.grib2 2026-04-17 14:43 453K
20260417T12Z_MSC_RDPS_WindSpeed_IsbL-0500_RLatLon0.09_PT017H.grib2 2026-04-17 14:43 455K
20260417T12Z_MSC_RDPS_WindSpeed_IsbL-0550_RLatLon0.09_PT017H.grib2 2026-04-17 14:43 457K
20260417T12Z_MSC_RDPS_WindSpeed_IsbL-0600_RLatLon0.09_PT017H.grib2 2026-04-17 14:43 585K
20260417T12Z_MSC_RDPS_WindSpeed_IsbL-0650_RLatLon0.09_PT017H.grib2 2026-04-17 14:43 607K
20260417T12Z_MSC_RDPS_WindSpeed_IsbL-0700_RLatLon0.09_PT017H.grib2 2026-04-17 14:43 630K
20260417T12Z_MSC_RDPS_WindSpeed_IsbL-0750_RLatLon0.09_PT017H.grib2 2026-04-17 14:43 658K
20260417T12Z_MSC_RDPS_WindSpeed_IsbL-0800_RLatLon0.09_PT017H.grib2 2026-04-17 14:43 707K
20260417T12Z_MSC_RDPS_WindSpeed_IsbL-0850_RLatLon0.09_PT017H.grib2 2026-04-17 14:43 765K
20260417T12Z_MSC_RDPS_WindSpeed_IsbL-0875_RLatLon0.09_PT017H.grib2 2026-04-17 14:43 787K
20260417T12Z_MSC_RDPS_WindSpeed_IsbL-0900_RLatLon0.09_PT017H.grib2 2026-04-17 14:43 805K
20260417T12Z_MSC_RDPS_WindSpeed_IsbL-0925_RLatLon0.09_PT017H.grib2 2026-04-17 14:43 867K
20260417T12Z_MSC_RDPS_WindSpeed_IsbL-0950_RLatLon0.09_PT017H.grib2 2026-04-17 14:43 869K
20260417T12Z_MSC_RDPS_WindSpeed_IsbL-0970_RLatLon0.09_PT017H.grib2 2026-04-17 14:43 865K
20260417T12Z_MSC_RDPS_WindSpeed_IsbL-0985_RLatLon0.09_PT017H.grib2 2026-04-17 14:43 858K
20260417T12Z_MSC_RDPS_WindSpeed_IsbL-1000_RLatLon0.09_PT017H.grib2 2026-04-17 14:43 854K
20260417T12Z_MSC_RDPS_WindSpeed_IsbL-1015_RLatLon0.09_PT017H.grib2 2026-04-17 14:43 844K
20260417T12Z_MSC_RDPS_WindU_AGL-10m_RLatLon0.09_PT017H.grib2 2026-04-17 14:43 433K
20260417T12Z_MSC_RDPS_WindU_AGL-120m_RLatLon0.09_PT017H.grib2 2026-04-17 14:43 419K
20260417T12Z_MSC_RDPS_WindU_AGL-40m_RLatLon0.09_PT017H.grib2 2026-04-17 14:43 541K
20260417T12Z_MSC_RDPS_WindU_AGL-80m_RLatLon0.09_PT017H.grib2 2026-04-17 14:43 421K
20260417T12Z_MSC_RDPS_WindU_IsbL-0001_RLatLon0.09_PT017H.grib2 2026-04-17 14:43 290K
20260417T12Z_MSC_RDPS_WindU_IsbL-0005_RLatLon0.09_PT017H.grib2 2026-04-17 14:43 305K
20260417T12Z_MSC_RDPS_WindU_IsbL-0010_RLatLon0.09_PT017H.grib2 2026-04-17 14:43 314K
20260417T12Z_MSC_RDPS_WindU_IsbL-0020_RLatLon0.09_PT017H.grib2 2026-04-17 14:43 332K
20260417T12Z_MSC_RDPS_WindU_IsbL-0030_RLatLon0.09_PT017H.grib2 2026-04-17 14:43 256K
20260417T12Z_MSC_RDPS_WindU_IsbL-0050_RLatLon0.09_PT017H.grib2 2026-04-17 14:43 361K
20260417T12Z_MSC_RDPS_WindU_IsbL-0100_RLatLon0.09_PT017H.grib2 2026-04-17 14:43 342K
20260417T12Z_MSC_RDPS_WindU_IsbL-0150_RLatLon0.09_PT017H.grib2 2026-04-17 14:43 390K
20260417T12Z_MSC_RDPS_WindU_IsbL-0175_RLatLon0.09_PT017H.grib2 2026-04-17 14:43 414K
20260417T12Z_MSC_RDPS_WindU_IsbL-0200_RLatLon0.09_PT017H.grib2 2026-04-17 14:43 431K
20260417T12Z_MSC_RDPS_WindU_IsbL-0225_RLatLon0.09_PT017H.grib2 2026-04-17 14:43 438K
20260417T12Z_MSC_RDPS_WindU_IsbL-0250_RLatLon0.09_PT017H.grib2 2026-04-17 14:43 343K
20260417T12Z_MSC_RDPS_WindU_IsbL-0275_RLatLon0.09_PT017H.grib2 2026-04-17 14:43 355K
20260417T12Z_MSC_RDPS_WindU_IsbL-0300_RLatLon0.09_PT017H.grib2 2026-04-17 14:43 349K
20260417T12Z_MSC_RDPS_WindU_IsbL-0350_RLatLon0.09_PT017H.grib2 2026-04-17 14:43 354K
20260417T12Z_MSC_RDPS_WindU_IsbL-0400_RLatLon0.09_PT017H.grib2 2026-04-17 14:43 458K
20260417T12Z_MSC_RDPS_WindU_IsbL-0450_RLatLon0.09_PT017H.grib2 2026-04-17 14:43 458K
20260417T12Z_MSC_RDPS_WindU_IsbL-0500_RLatLon0.09_PT017H.grib2 2026-04-17 14:43 461K
20260417T12Z_MSC_RDPS_WindU_IsbL-0550_RLatLon0.09_PT017H.grib2 2026-04-17 14:43 464K
20260417T12Z_MSC_RDPS_WindU_IsbL-0600_RLatLon0.09_PT017H.grib2 2026-04-17 14:43 474K
20260417T12Z_MSC_RDPS_WindU_IsbL-0650_RLatLon0.09_PT017H.grib2 2026-04-17 14:43 493K
20260417T12Z_MSC_RDPS_WindU_IsbL-0700_RLatLon0.09_PT017H.grib2 2026-04-17 14:43 513K
20260417T12Z_MSC_RDPS_WindU_IsbL-0750_RLatLon0.09_PT017H.grib2 2026-04-17 14:43 537K
20260417T12Z_MSC_RDPS_WindU_IsbL-0800_RLatLon0.09_PT017H.grib2 2026-04-17 14:43 579K
20260417T12Z_MSC_RDPS_WindU_IsbL-0850_RLatLon0.09_PT017H.grib2 2026-04-17 14:43 629K
20260417T12Z_MSC_RDPS_WindU_IsbL-0875_RLatLon0.09_PT017H.grib2 2026-04-17 14:43 647K
20260417T12Z_MSC_RDPS_WindU_IsbL-0900_RLatLon0.09_PT017H.grib2 2026-04-17 14:43 660K
20260417T12Z_MSC_RDPS_WindU_IsbL-0925_RLatLon0.09_PT017H.grib2 2026-04-17 14:43 668K
20260417T12Z_MSC_RDPS_WindU_IsbL-0950_RLatLon0.09_PT017H.grib2 2026-04-17 14:43 661K
20260417T12Z_MSC_RDPS_WindU_IsbL-0970_RLatLon0.09_PT017H.grib2 2026-04-17 14:43 659K
20260417T12Z_MSC_RDPS_WindU_IsbL-0985_RLatLon0.09_PT017H.grib2 2026-04-17 14:43 794K
20260417T12Z_MSC_RDPS_WindU_IsbL-1000_RLatLon0.09_PT017H.grib2 2026-04-17 14:43 791K
20260417T12Z_MSC_RDPS_WindU_IsbL-1015_RLatLon0.09_PT017H.grib2 2026-04-17 14:43 783K
20260417T12Z_MSC_RDPS_WindV_AGL-10m_RLatLon0.09_PT017H.grib2 2026-04-17 14:43 430K
20260417T12Z_MSC_RDPS_WindV_AGL-120m_RLatLon0.09_PT017H.grib2 2026-04-17 14:43 415K
20260417T12Z_MSC_RDPS_WindV_AGL-40m_RLatLon0.09_PT017H.grib2 2026-04-17 14:43 536K
20260417T12Z_MSC_RDPS_WindV_AGL-80m_RLatLon0.09_PT017H.grib2 2026-04-17 14:43 534K
20260417T12Z_MSC_RDPS_WindV_IsbL-0001_RLatLon0.09_PT017H.grib2 2026-04-17 14:43 266K
20260417T12Z_MSC_RDPS_WindV_IsbL-0005_RLatLon0.09_PT017H.grib2 2026-04-17 14:43 304K
20260417T12Z_MSC_RDPS_WindV_IsbL-0010_RLatLon0.09_PT017H.grib2 2026-04-17 14:43 313K
20260417T12Z_MSC_RDPS_WindV_IsbL-0020_RLatLon0.09_PT017H.grib2 2026-04-17 14:43 322K
20260417T12Z_MSC_RDPS_WindV_IsbL-0030_RLatLon0.09_PT017H.grib2 2026-04-17 14:43 322K
20260417T12Z_MSC_RDPS_WindV_IsbL-0050_RLatLon0.09_PT017H.grib2 2026-04-17 14:43 358K
20260417T12Z_MSC_RDPS_WindV_IsbL-0100_RLatLon0.09_PT017H.grib2 2026-04-17 14:43 334K
20260417T12Z_MSC_RDPS_WindV_IsbL-0150_RLatLon0.09_PT017H.grib2 2026-04-17 14:43 385K
20260417T12Z_MSC_RDPS_WindV_IsbL-0175_RLatLon0.09_PT017H.grib2 2026-04-17 14:43 411K
20260417T12Z_MSC_RDPS_WindV_IsbL-0200_RLatLon0.09_PT017H.grib2 2026-04-17 14:43 333K
20260417T12Z_MSC_RDPS_WindV_IsbL-0225_RLatLon0.09_PT017H.grib2 2026-04-17 14:43 339K
20260417T12Z_MSC_RDPS_WindV_IsbL-0250_RLatLon0.09_PT017H.grib2 2026-04-17 14:43 368K
20260417T12Z_MSC_RDPS_WindV_IsbL-0275_RLatLon0.09_PT017H.grib2 2026-04-17 14:43 379K
20260417T12Z_MSC_RDPS_WindV_IsbL-0300_RLatLon0.09_PT017H.grib2 2026-04-17 14:43 374K
20260417T12Z_MSC_RDPS_WindV_IsbL-0350_RLatLon0.09_PT017H.grib2 2026-04-17 14:43 354K
20260417T12Z_MSC_RDPS_WindV_IsbL-0400_RLatLon0.09_PT017H.grib2 2026-04-17 14:43 356K
20260417T12Z_MSC_RDPS_WindV_IsbL-0450_RLatLon0.09_PT017H.grib2 2026-04-17 14:43 457K
20260417T12Z_MSC_RDPS_WindV_IsbL-0500_RLatLon0.09_PT017H.grib2 2026-04-17 14:43 458K
20260417T12Z_MSC_RDPS_WindV_IsbL-0550_RLatLon0.09_PT017H.grib2 2026-04-17 14:43 461K
20260417T12Z_MSC_RDPS_WindV_IsbL-0600_RLatLon0.09_PT017H.grib2 2026-04-17 14:43 470K
20260417T12Z_MSC_RDPS_WindV_IsbL-0650_RLatLon0.09_PT017H.grib2 2026-04-17 14:43 472K
20260417T12Z_MSC_RDPS_WindV_IsbL-0700_RLatLon0.09_PT017H.grib2 2026-04-17 14:43 495K
20260417T12Z_MSC_RDPS_WindV_IsbL-0750_RLatLon0.09_PT017H.grib2 2026-04-17 14:43 520K
20260417T12Z_MSC_RDPS_WindV_IsbL-0800_RLatLon0.09_PT017H.grib2 2026-04-17 14:43 562K
20260417T12Z_MSC_RDPS_WindV_IsbL-0850_RLatLon0.09_PT017H.grib2 2026-04-17 14:43 614K
20260417T12Z_MSC_RDPS_WindV_IsbL-0875_RLatLon0.09_PT017H.grib2 2026-04-17 14:43 633K
20260417T12Z_MSC_RDPS_WindV_IsbL-0900_RLatLon0.09_PT017H.grib2 2026-04-17 14:43 649K
20260417T12Z_MSC_RDPS_WindV_IsbL-0925_RLatLon0.09_PT017H.grib2 2026-04-17 14:43 660K
20260417T12Z_MSC_RDPS_WindV_IsbL-0950_RLatLon0.09_PT017H.grib2 2026-04-17 14:43 657K
20260417T12Z_MSC_RDPS_WindV_IsbL-0970_RLatLon0.09_PT017H.grib2 2026-04-17 14:43 654K
20260417T12Z_MSC_RDPS_WindV_IsbL-0985_RLatLon0.09_PT017H.grib2 2026-04-17 14:43 788K
20260417T12Z_MSC_RDPS_WindV_IsbL-1000_RLatLon0.09_PT017H.grib2 2026-04-17 14:43 783K
20260417T12Z_MSC_RDPS_WindV_IsbL-1015_RLatLon0.09_PT017H.grib2 2026-04-17 14:43 776K